Hourly Data Report for November 22, 2017

All times are specified in Local Standard Time (LST). Add 1 hour to adjust for Daylight Saving Time where and when it is observed.

GRAND ETANG
NOVA SCOTIA

46°33'00.000" N
61°03'00.000" W
12.80 m
8201969
73030
WZQ

Related Data

No related data is available for this station

Download Data

Hourly Data (November 2017)
Hourly Data Report for November 22, 2017
Temp Definition
°C
Dew Point Temp Definition
°C
Rel Hum Definition
%
Wind Dir Definition
10's deg

Wind Spd Definition
km/h
Visibility Definition
km
Stn Press Definition
kPa
Hmdx Definition


Wind Chill Definition


Weather Definition


TIME
00:00 4.8 1.9 81 17 18   101.71     LegendNANA
01:00 6.2 4.3 88 16 24   101.73     LegendNANA
02:00 7.5 3.9 78 18 23   101.72     LegendNANA
03:00 7.6 5.9 89 17 21   101.68     LegendNANA
04:00 7.7 5.5 86 18 18   101.64     LegendNANA
05:00 7.3 5.9 91 17 16   101.69     LegendNANA
06:00 7.5 6.1 91 17 18   101.68     LegendNANA
07:00 7.3 5.2 87 16 16   101.64     LegendNANA
08:00 7.8 6.3 90 17 16   101.71     LegendNANA
09:00 8.9 7.1 88 18 16   101.72     LegendNANA
10:00 10.2 6.7 79 19 16   101.74     LegendNANA
11:00 10.1 7.1 81 19 16   101.68     LegendNANA
12:00 9.9 6.1 77 20 19   101.63     LegendNANA
13:00 10.7 8.1 84 20 13   101.62     LegendNANA
14:00 11.2 8.3 82 20 13   101.54     LegendNANA
15:00 11.1 5.4 68 18 15   101.49     LegendNANA
16:00 10.1 5.8 75 15 16   101.46     LegendNANA
17:00 10.4 6.7 78 14 18   101.35     LegendNANA
18:00 10.8 5.8 71 14 27   101.24     LegendNANA
19:00 10.9 7.9 82 16 25   101.16     LegendNANA
20:00 11.5 7.5 77 14 28   101.01     LegendNANA
21:00 13.0 8.2 73 16 27   100.80     LegendNANA
22:00 13.3 9.8 79 14 35   100.69     LegendNANA
23:00 12.4 10.7 89 14 38   100.47     LegendNANA

Notes on Data Quality.

Legend

  • E = Estimated
  • M = Missing
  • NA = Not Available
  • ‡ = Partner data that is not subject to review by the National Climate Archives
Date modified: